[[{"header":{"parameterUnit":"m.s-1","parameterCategory":1,"la1":30.2991,"la2":30.254,"lo1":-89.0895,"lo2":-89.0444,"dy":0.0017,"dx":0.0017,"nx":28,"ny":28,"refTime":"2024-07-17T09:00:00:Z","depth":0,"parameterNumber":2,"parameterNumberName":"U-component_of_WINDS"},"data":[0,0,0,0,0,0,0,0,0,0,0,0,0,0,0,0,0,0,0,0,0,0,0,0,0,0,0,0,0,0,0,0,0,0,0,0,0,0,0,0,0,0,0,0,0,0,0,0,0,0,0,0,0,0,0,0,0,0,-0.2087,-0.2086,0,-0.1991,-0.199,-0.1989,-0.1921,-0.1921,-0.192,-0.192,-0.182,-0.1818,-0.1816,0,0,0,0,0,0,0,0,0,0,0,0,0,-0.2213,-0.2211,-0.2088,-0.2086,-0.2085,-0.1992,-0.199,-0.1989,-0.1921,-0.1921,-0.192,-0.1919,-0.1821,-0.1819,-0.1816,0,0,0,0,0,0,0,0,0,0,0,0,0,-0.2142,-0.221,-0.2088,-0.204,-0.2035,-0.1992,-0.199,-0.1989,-0.1921,-0.1921,-0.192,-0.1919,-0.1822,-0.1819,-0.1816,-0.1812,0,0,-0.1806,-0.1805,0,0,0,0,0,0,0,0,-0.2146,-0.2137,-0.2048,-0.2043,-0.2037,-0.1967,-0.1998,-0.193,-0.1922,-0.1964,-0.1919,-0.1919,-0.187,-0.1863,-0.1847,-0.1808,-0.1803,-0.1806,-0.1804,-0.1802,-0.1801,0,0,0,0,0,0,0,-0.2151,-0.2141,-0.2049,-0.2047,-0.204,-0.2024,-0.2013,-0.1985,-0.1923,-0.1961,-0.1955,-0.1945,-0.1867,-0.185,-0.1844,-0.1802,-0.1806,-0.1803,-0.1801,-0.18,-0.1757,-0.1758,0,0,0,0,0,0,-0.2163,-0.2145,-0.2053,-0.2047,-0.2091,-0.2022,-0.201,-0.1991,-0.1923,-0.1912,-0.1946,-0.1942,-0.1856,-0.1848,-0.184,-0.1833,-0.1802,-0.1799,-0.1798,-0.1756,-0.1757,-0.1758,0,0,0,0,0,0,-0.2166,-0.2156,-0.2056,-0.2095,-0.2081,-0.2021,-0.2,-0.1989,-0.1972,-0.1912,-0.1901,-0.194,-0.1855,-0.1844,-0.182,-0.1828,-0.1798,-0.1795,-0.1755,-0.1757,-0.1758,-0.1818,0,0,0,0,0,0,-0.217,-0.2157,-0.2155,-0.2095,-0.2079,-0.2038,-0.2,-0.1988,-0.1967,-0.1961,-0.1903,-0.1893,-0.1853,-0.1825,-0.1817,-0.1823,-0.1793,-0.1754,-0.1756,-0.1757,-0.1815,-0.1821,-0.1826,0,0,0,0,0,-0.2175,-0.2175,-0.2155,-0.2144,-0.2075,-0.2039,-0.203,-0.1984,-0.1968,-0.1966,-0.1927,-0.1895,-0.1829,-0.1823,-0.1813,-0.1819,-0.1754,-0.1755,-0.1757,-0.1812,-0.182,-0.1826,0,0,0,0,0,0,-0.2237,-0.2167,-0.2144,-0.2125,-0.2089,-0.2028,-0.2023,-0.1993,-0.1961,-0.1957,-0.1902,-0.1889,-0.1871,-0.1842,-0.1838,-0.1813,-0.1787,-0.1787,-0.1833,-0.1839,-0.1845,-0.1852,-0.179,0,0,0,0,0,-0.2249,-0.2226,-0.2165,-0.2154,-0.2137,-0.2084,-0.2066,-0.2034,-0.1995,-0.1979,-0.1938,-0.1901,-0.1872,-0.1853,-0.1823,-0.181,-0.1797,-0.1809,-0.1815,-0.182,-0.1821,-0.1813,-0.1818,-0.1764,-0.1764,-0.1764,0,0,-0.2273,-0.2231,-0.222,-0.2166,-0.2134,-0.2111,-0.2071,-0.2048,-0.2031,-0.1975,-0.195,-0.1919,-0.1874,-0.1856,-0.1845,-0.1831,-0.1833,-0.1822,-0.1826,-0.1824,-0.1815,-0.1821,-0.1825,-0.1765,-0.1765,-0.1765,0,0,-0.2305,-0.2271,-0.2259,-0.2228,-0.2181,-0.2145,-0.2143,-0.2086,-0.2064,-0.2038,-0.1996,-0.1974,-0.1925,-0.1895,-0.1873,-0.1895,-0.1864,-0.1886,-0.1916,-0.1909,-0.1914,-0.1917,-0.1926,-0.193,-0.1887,-0.1887,-0.1887,0,-0.2341,-0.2305,-0.2257,-0.2237,-0.2215,-0.2163,-0.2151,-0.2124,-0.2069,-0.2055,-0.2039,-0.1977,-0.1943,-0.1918,-0.1923,-0.1907,-0.1903,-0.1893,-0.1917,-0.192,-0.1922,-0.1931,-0.1934,-0.189,-0.189,-0.189,-0.1889,0,-0.2352,-0.2328,-0.2324,-0.2273,-0.225,-0.2235,-0.2184,-0.2167,-0.2137,-0.2104,-0.2079,-0.2036,-0.1997,-0.1988,-0.1958,-0.1959,-0.1952,-0.1927,-0.19,-0.1932,-0.1939,-0.1941,-0.1895,-0.1894,-0.1893,-0.1892,0,0,-0.2422,-0.2345,-0.2344,-0.2321,-0.2265,-0.2245,-0.2228,-0.219,-0.2177,-0.214,-0.2125,-0.2085,-0.2062,-0.2038,-0.2004,-0.1998,-0.202,-0.1975,-0.1973,-0.1986,-0.202,-0.204,-0.2044,-0.1999,-0.2,-0.2,-0.2024,0,-0.2447,-0.2412,-0.2368,-0.2349,-0.2326,-0.2278,-0.2262,-0.2226,-0.2195,-0.2171,-0.2135,-0.2109,-0.208,-0.2065,-0.2057,-0.202,-0.2027,-0.2017,-0.1985,-0.1985,-0.2,-0.2047,-0.2067,-0.2092,-0.2026,-0.2027,-0.2027,0,-0.2471,-0.2438,-0.2417,-0.2364,-0.2353,-0.234,-0.2302,-0.228,-0.2239,-0.2216,-0.2189,-0.2154,-0.2133,-0.2109,-0.208,-0.2074,-0.2059,-0.2038,-0.2038,-0.2034,-0.2009,-0.2046,-0.2099,-0.2103,-0.203,-0.203,-0.203,0,-0.2526,-0.2476,-0.2457,-0.2439,-0.2376,-0.2368,-0.2342,-0.23,-0.228,-0.2247,-0.2234,-0.2199,-0.218,-0.2154,-0.211,-0.2096,-0.2087,-0.2058,-0.2068,-0.2069,-0.2069,-0.207,-0.2122,-0.2057,-0.2057,-0.2057,-0.2057,0,-0.2559,-0.2549,-0.2481,-0.247,-0.2457,-0.2406,-0.2394,-0.2363,-0.2327,-0.2309,-0.2264,-0.2248,-0.219,-0.2168,-0.2133,-0.2115,-0.2107,-0.2088,-0.208,-0.2093,-0.2096,-0.2083,-0.2081,-0.2058,-0.2057,-0.2057,-0.2057,0,-0.2619,-0.2573,-0.255,-0.2492,-0.2478,-0.2471,-0.2422,-0.2409,-0.2374,-0.2352,-0.2344,-0.229,-0.2262,-0.2215,-0.2172,-0.2149,-0.2139,-0.2123,-0.2153,-0.2148,-0.2161,-0.2161,-0.2207,-0.2211,-0.2143,-0.2144,-0.2144,0,-0.2644,-0.2634,-0.2576,-0.2561,-0.2536,-0.2512,-0.2492,-0.2442,-0.2423,-0.2376,-0.237,-0.2337,-0.2309,-0.2266,-0.2223,-0.2191,-0.2175,-0.2193,-0.2169,-0.2184,-0.2177,-0.2179,-0.2178,-0.2199,-0.22,-0.2201,-0.2201,0,-0.2694,-0.2672,-0.2644,-0.261,-0.2587,-0.2557,-0.2525,-0.2515,-0.2458,-0.244,-0.241,-0.2388,-0.2345,-0.2314,-0.2276,-0.2249,-0.2216,-0.2209,-0.221,-0.2225,-0.2243,-0.2235,-0.2169,-0.2209,-0.2208,-0.2207,-0.2207,-0.2207,-0.2737,-0.2727,-0.2685,-0.2657,-0.2627,-0.2599,-0.2584,-0.2548,-0.2523,-0.2484,-0.2456,-0.2429,-0.2388,-0.2334,-0.2308,-0.2287,-0.2272,-0.2273,-0.2273,-0.2275,-0.2281,-0.2246,-0.2279,-0.2279,-0.2279,-0.2278,-0.2278,0,-0.2786,-0.2757,-0.2731,-0.2688,-0.2666,-0.2636,-0.26,-0.2583,-0.256,-0.2525,-0.2498,-0.2465,-0.2435,-0.239,-0.2357,-0.2348,-0.2332,-0.2341,-0.2342,-0.2337,-0.2295,-0.2298,-0.2355,-0.2355,-0.2355,-0.2355,-0.2354,-0.2354,-0.2809,-0.2791,-0.2764,-0.2731,-0.2702,-0.2675,-0.2656,-0.263,-0.2602,-0.2567,-0.2542,-0.2513,-0.2474,-0.2438,-0.2409,-0.2397,-0.2387,-0.2401,-0.2385,-0.2346,-0.2339,-0.2333,-0.2336,-0.2399,-0.2399,-0.2428,-0.2429,-0.2429]},{"header":{"parameterUnit":"m.s-1","parameterCategory":1,"la1":30.2991,"la2":30.254,"lo1":-89.0895,"lo2":-89.0444,"dy":0.0017,"dx":0.0017,"nx":28,"ny":28,"refTime":"2024-07-17T09:00:00:Z","depth":0,"parameterNumber":3,"parameterNumberName":"V-component_of_WINDS"},"data":[0,0,0,0,0,0,0,0,0,0,0,0,0,0,0,0,0,0,0,0,0,0,0,0,0,0,0,0,0,0,0,0,0,0,0,0,0,0,0,0,0,0,0,0,0,0,0,0,0,0,0,0,0,0,0,0,0,0,4.2684,4.2684,0,4.2659,4.2659,4.2658,4.2653,4.2653,4.2653,4.2653,4.2623,4.2622,4.2621,0,0,0,0,0,0,0,0,0,0,0,0,0,4.2724,4.2723,4.2684,4.2684,4.2684,4.2659,4.2659,4.2658,4.2653,4.2653,4.2653,4.2654,4.2623,4.2622,4.2621,0,0,0,0,0,0,0,0,0,0,0,0,0,4.2703,4.2723,4.2684,4.2678,4.2677,4.2659,4.2659,4.2658,4.2653,4.2653,4.2653,4.2654,4.2624,4.2622,4.2621,4.2606,0,0,4.2616,4.2616,0,0,0,0,0,0,0,0,4.2705,4.2702,4.2679,4.2679,4.2678,4.266,4.2662,4.2641,4.2653,4.2662,4.2653,4.2654,4.2635,4.2632,4.2627,4.2604,4.2603,4.2616,4.2615,4.2615,4.2614,0,0,0,0,0,0,0,4.2706,4.2703,4.2674,4.2679,4.2678,4.2675,4.2673,4.2658,4.2647,4.2661,4.2661,4.2658,4.2634,4.2628,4.2626,4.2603,4.2616,4.2615,4.2614,4.2613,4.2566,4.2566,0,0,0,0,0,0,4.2709,4.2704,4.2675,4.2673,4.2692,4.2674,4.2671,4.2665,4.2647,4.2645,4.2658,4.2658,4.2631,4.2628,4.2625,4.2606,4.2615,4.2613,4.2612,4.2566,4.2566,4.2565,0,0,0,0,0,0,4.271,4.2707,4.2676,4.2689,4.2685,4.2673,4.2666,4.2664,4.2658,4.2645,4.2642,4.2654,4.2631,4.2627,4.2611,4.2605,4.2613,4.2611,4.2567,4.2566,4.2566,4.2568,0,0,0,0,0,0,4.2711,4.2707,4.2702,4.2689,4.2684,4.2664,4.2666,4.2664,4.2656,4.2656,4.264,4.2638,4.2631,4.2613,4.2609,4.2603,4.261,4.2567,4.2566,4.2566,4.2568,4.2567,4.2567,0,0,0,0,0,4.2713,4.2703,4.2702,4.2698,4.2678,4.2663,4.2661,4.2654,4.2656,4.265,4.2641,4.2638,4.2606,4.2611,4.2607,4.26,4.2568,4.2567,4.2566,4.2569,4.2568,4.2567,0,0,0,0,0,0,4.2715,4.2701,4.27,4.2686,4.2676,4.2663,4.2655,4.2653,4.2641,4.2641,4.2632,4.2628,4.2613,4.2605,4.2611,4.2584,4.2587,4.2585,4.259,4.2589,4.2588,4.259,4.2609,0,0,0,0,0,4.2714,4.2704,4.2692,4.2681,4.2676,4.2667,4.266,4.2656,4.2645,4.264,4.263,4.2618,4.2605,4.2597,4.2584,4.2567,4.2563,4.256,4.2559,4.2559,4.2557,4.2547,4.2545,4.2563,4.2563,4.2563,0,0,4.2711,4.2703,4.2697,4.2681,4.2673,4.2662,4.2663,4.2652,4.2643,4.2638,4.2622,4.2614,4.26,4.2584,4.2576,4.2576,4.2551,4.2558,4.2557,4.2556,4.2546,4.2544,4.2543,4.2562,4.2562,4.2562,0,0,4.2701,4.2694,4.2684,4.2676,4.2664,4.2658,4.2655,4.2642,4.2637,4.2622,4.2617,4.2606,4.2584,4.2574,4.2566,4.2552,4.2549,4.2548,4.2544,4.2534,4.2533,4.2532,4.2526,4.2524,4.2547,4.2547,4.2547,0,4.2699,4.2684,4.2678,4.2667,4.266,4.2656,4.2645,4.2637,4.2621,4.2615,4.2617,4.2589,4.2579,4.256,4.2557,4.2551,4.2547,4.255,4.2534,4.2533,4.2531,4.2526,4.2524,4.2547,4.2547,4.2547,4.2547,0,4.2682,4.2671,4.2664,4.2651,4.2642,4.2631,4.2623,4.2615,4.2611,4.2604,4.2588,4.2576,4.2561,4.2556,4.2552,4.2536,4.2537,4.2536,4.2538,4.253,4.2524,4.2522,4.2547,4.2547,4.2547,4.2547,0,0,4.2672,4.2656,4.2653,4.2647,4.2633,4.2624,4.2612,4.2599,4.2592,4.2581,4.257,4.2552,4.2551,4.2542,4.2537,4.2528,4.2517,4.2528,4.2528,4.2526,4.2498,4.2499,4.2496,4.2515,4.2515,4.2514,4.2499,0,4.266,4.2641,4.2635,4.2618,4.2608,4.2604,4.2593,4.2583,4.2576,4.2565,4.2557,4.2544,4.2544,4.2539,4.253,4.252,4.2511,4.2521,4.2503,4.2503,4.2507,4.2494,4.2494,4.2481,4.2497,4.2497,4.2497,0,4.2644,4.2634,4.2616,4.2604,4.26,4.259,4.2577,4.2568,4.2555,4.2551,4.2541,4.2536,4.2522,4.2525,4.2505,4.2512,4.2504,4.2498,4.2497,4.2495,4.2499,4.2491,4.2476,4.2474,4.2493,4.2494,4.2494,0,4.2638,4.262,4.2608,4.2602,4.2588,4.2581,4.2574,4.2563,4.2555,4.2543,4.2537,4.2523,4.2516,4.2504,4.2495,4.2498,4.2475,4.2478,4.247,4.247,4.2465,4.2466,4.2449,4.2461,4.2461,4.2461,4.2461,0,4.2626,4.2615,4.2605,4.2597,4.2584,4.2577,4.2565,4.2557,4.2547,4.2536,4.2531,4.2521,4.251,4.2498,4.249,4.2474,4.2471,4.2466,4.2464,4.2466,4.2467,4.2461,4.2461,4.246,4.246,4.2461,4.2461,0,4.2617,4.2611,4.2596,4.2584,4.258,4.2571,4.256,4.2551,4.2544,4.2531,4.2527,4.2516,4.2501,4.2491,4.2472,4.2467,4.245,4.2448,4.2454,4.2453,4.2446,4.2447,4.2425,4.2421,4.2435,4.2435,4.2435,0,4.261,4.2602,4.2589,4.2582,4.2576,4.2565,4.2557,4.2549,4.2541,4.2527,4.2519,4.2505,4.2493,4.247,4.2459,4.2444,4.2441,4.2435,4.2439,4.2442,4.2441,4.2441,4.244,4.2434,4.2434,4.2434,4.2434,0,4.2597,4.2594,4.2584,4.2572,4.2563,4.2554,4.2544,4.2538,4.2528,4.2519,4.2505,4.2496,4.2477,4.2462,4.2447,4.2438,4.2434,4.2432,4.243,4.2432,4.2436,4.2433,4.2452,4.2433,4.2433,4.2433,4.2433,4.2433,4.2588,4.2581,4.2571,4.2559,4.2551,4.2542,4.2533,4.2525,4.2514,4.2499,4.2495,4.248,4.2467,4.2446,4.2437,4.2424,4.2424,4.2421,4.242,4.2419,4.2419,4.2438,4.2421,4.2421,4.2421,4.2421,4.2421,0,4.2575,4.2568,4.2558,4.2545,4.2535,4.2534,4.2523,4.2514,4.2502,4.2491,4.248,4.2463,4.2449,4.2437,4.2421,4.2413,4.2411,4.241,4.241,4.2408,4.2419,4.2423,4.2412,4.2412,4.2412,4.2412,4.2412,4.2412,4.2567,4.2554,4.2549,4.2532,4.2525,4.2512,4.2505,4.2496,4.2487,4.247,4.2458,4.2451,4.2439,4.2423,4.2409,4.2406,4.24,4.2399,4.2395,4.2406,4.2407,4.2408,4.2412,4.2398,4.2398,4.2385,4.2384,4.2384]}]]